Regional Weather Roundup
Issued by NWS

Home | Current Version | Previous Version | Graphics & Text | Print | Product List | Glossary On
Versions: 1 2 3 4 5 6 7 8 9 10 11 12 13 14 15 16 17 18 19 20 21 22 23 24 25 26 27 28 29 30 31 32 33 34 35 36 37 38 39 40 41 42 43 44 45 46 47 48 49 50
000
ASUS45 KABQ 132001
RWRNM
NEW MEXICO REGIONAL WEATHER ROUNDUP
NATIONAL WEATHER SERVICE ALBUQUERQUE NM
100 PM MST SAT FEB 13 2016

NOTE: "FAIR" MEANS FEW OR NO CLOUDS BELOW 12,000 FEET AGL WITH NO
       SIGNIFICANT WEATHER OR OBSTRUCTIONS TO VISION.

      THIS PRODUCT IS RELEASED AS TWO VERSIONS.  ONE VERSION NEAR
      THE TOP OF THE HOUR CONTAINING PRELIMINARY DATA FROM ALBUQUERQUE
      AND OTHER STATIONS.  A FINAL VERSION WITH ADDITIONAL DATA IS
      ISSUED ABOUT 10 MINUTES AFTER THE HOUR.

NMZ501-503-504-510>518-132100-
NORTHWEST PLATEAU/NORTHCENTRAL MOUNTAINS

CITY           SKY/WX    TMP DP  RH WIND       PRES   REMARKS
FARMINGTON     FAIR      59  23  25 CALM      30.18F
SANTA FE       FAIR      62  15  16 W17G29    30.19F
TAOS           FAIR      55  25  30 SW12      30.20F

$$
NMZ402-403-502-505>509-132100-
WESTCENTRAL MOUNTAINS/SOUTHWEST MOUNTAINS

CITY           SKY/WX    TMP DP  RH WIND       PRES   REMARKS
GALLUP         FAIR      63  16  16 SW15      30.24F
GRANTS         FAIR      66  11  12 W13G20    30.23F
SILVER CITY      N/A     66   7   9 SE5       30.23F

$$
NMZ407-409-411-412-132100-
SOUTHERN DESERTS

CITY           SKY/WX    TMP DP  RH WIND       PRES   REMARKS
DEMING         FAIR      69  12  11 VRB3      30.18F
HOLLOMAN AFB   FAIR      70  13  11 S6        30.16F
ALAMOGORDO     FAIR      72  18  13 S14       30.17F
T OR C         FAIR      67   8  10 S10       30.18F

$$
NMZ519>523-132100-
CENTRAL VALLEYS/CENTRAL HIGHLANDS

CITY           SKY/WX    TMP DP  RH WIND       PRES   REMARKS
ALBUQUERQUE    FAIR      62  14  15 SW7       30.20F
DOUBLE EAGLE   MOSUNNY   63  21  20 SE8       30.21F
MORIARTY ARPT  FAIR      67  10  10 W16G23    30.20F
CLINES CORNERS FAIR      62  17  17 W16G26    30.19F
BELEN          FAIR      64  14  14 SE7       30.18F
SOCORRO        NOT AVBL

$$
NMZ524>526-539-540-132100-
SOUTHCENTRAL MOUNTAINS

CITY           SKY/WX    TMP DP  RH WIND       PRES   REMARKS
RUIDOSO          N/A     64   5   9 SW16G24   30.24F

$$
NMZ527>531-132100-
NORTHEAST HIGHLANDS/NORTHEAST PLAINS

CITY           SKY/WX    TMP DP  RH WIND       PRES   REMARKS
LAS VEGAS      FAIR      64  13  13 SW22G32   30.14F
RATON          FAIR      66  17  15 S15G23    30.06F
CLAYTON        FAIR      71  24  17 SW17G24   30.01F

$$
NMZ532>537-132100-
EASTCENTRAL PLAINS

CITY           SKY/WX    TMP DP  RH WIND       PRES   REMARKS
TUCUMCARI      FAIR      73  21  14 SW21      30.06F
CANNON AFB     FAIR      69  26  19 SW18      30.12F
CLOVIS AIRPORT FAIR      66  32  28 SW14G21   30.14F

$$
NMZ028-029-538-132100-
SOUTHEAST PLAINS

CITY           SKY/WX    TMP DP  RH WIND       PRES   REMARKS
ROSWELL        FAIR      65  28  24 SE9       30.13F
ARTESIA        FAIR      66  32  28 SE15      30.13F
CARLSBAD       FAIR      67  32  27 SE7       30.13F
HOBBS          SUNNY     66  32  28 S8        30.17F


$$



USA.gov is the U.S. government's official web portal to all federal, state and local government web resources and services.